Regional Weather Roundup
Issued by NWS Sterling, VA

Home | Current Version | Previous Version | Text Only | Print | Product List | Glossary On
Versions: 1 2 3 4 5 6 7 8 9 10 11 12 13 14 15 16 17 18 19 20 21 22 23 24 25 26 27
000
ASUS41 KLWX 190210
RWRLWX

REGIONAL WEATHER ROUNDUP
NATIONAL WEATHER SERVICE BALTIMORE MD/WASHINGTON DC
1000 PM EDT FRI APR 18 2014

Note: "FAIR" indicates few or no clouds below 12,000 feet
with no significant weather and/or obstructions to visibility.
 TC=TEMPERATURE CELSIUS

 * =Non NWS site. Station does not report precipitation (e.g. rain,
    snow, etc.), thunder, or fog.

DCZ001-MDZ009-015-VAZ040>042-051-053>054-190300-
WASHINGTON METRO

CITY           SKY/WX    TMP DP  RH WIND       PRES   REMARKS
WASHINGTON NAT CLOUDY    51  36  56 S6        30.32S
DULLES         CLOUDY    48  35  60 S6        30.31R
ANDREWS AFB    CLOUDY    46  36  68 S1        30.30F
FT BELVOIR     CLOUDY    46  36  69 CALM      30.32S
QUANTICO       CLOUDY    50  36  58 S6        30.32F
COLLEGE PARK*  CLOUDY    48  36  61 CALM      30.31S
LEESBURG*      CLOUDY    52  37  58 S3        30.31S
MANASSAS*      CLOUDY    48  37  66 CALM      30.30F
GAITHERSBURG*  CLOUDY    46  32  57 E3        30.32F

$$

MDZ006>007-011-014-190300-
BALTIMORE METRO

CITY           SKY/WX    TMP DP  RH WIND       PRES   REMARKS
BWI AIRPORT    CLOUDY    46  34  62 CALM      30.30F
MD SCIENCE CTR   N/A     50  32  50 MISG      30.32S
MARTIN STATE   CLOUDY    48  37  66 CALM      30.33S
ANNAPOLIS      CLOUDY    49  36  61 CALM      30.31S
FORT MEADE*    CLOUDY    43  36  75 CALM      30.34S

$$

MDZ012-015-019>023-190300-
MARYLAND EASTERN SHORE

CITY           SKY/WX    TMP DP  RH WIND       PRES   REMARKS
OCEAN CITY     CLOUDY    43  38  82 E5        30.32R
SALISBURY      CLOUDY    45  39  79 S3        30.31F
BAY BRIDGE AP* CLOUDY    46  36  66 CALM      30.32S
CAMBRIDGE*     CLOUDY    48  41  76 CALM      30.31S

$$

MDZ017>025-190300-
SOUTHERN MARYLAND

CITY           SKY/WX    TMP DP  RH WIND       PRES   REMARKS
PATUXENT RIVER CLOUDY    47  39  74 CALM      30.31S
ST INIGOES     CLOUDY    47  39  74 CALM      30.30F
LEONARDTOWN*   CLOUDY    45  37  76 CALM      30.32S

$$

MDZ003>005-190300-
NORTH CENTRAL MARYLAND

CITY           SKY/WX    TMP DP  RH WIND       PRES   REMARKS
FREDERICK*     CLOUDY    46  37  71 CALM      30.33S
HAGERSTOWN APT CLOUDY    50  34  54 S7        30.28S
WESTMINSTER*   CLOUDY    46  34  61 S5        30.30S

$$

MDZ501>502-190300-
WESTERN MARYLAND

CITY           SKY/WX    TMP DP  RH WIND       PRES   REMARKS
OAKLAND*       CLOUDY    46  28  49 SE6       30.25S
CUMBERLAND*    CLOUDY    54  34  47 CALM      30.30R

$$

VAZ025>031-190300-
SHENANDOAH VALLEY

CITY           SKY/WX    TMP DP  RH WIND       PRES   REMARKS
WINCHESTER*    CLOUDY    46  37  71 CALM      30.27S
STAUNTON*      CLOUDY    47  38  68 CALM      30.28F

$$

WVZ021-048>050-054>055-190300-
EASTERN WEST VIRGINIA PANHANDLE

CITY           SKY/WX    TMP DP  RH WIND       PRES   REMARKS
MARTINSBURG    CLOUDY    50  34  54 CALM      30.28S
PETERSBURG*    CLOUDY    57  44  61 W5        30.25S

$$

VAZ036>039-050-190300-
CENTRAL FOOTHILLS

CITY           SKY/WX    TMP DP  RH WIND       PRES   REMARKS
CHARLOTTESVILL CLOUDY    50  38  63 S3        30.28S
CULPEPER*      CLOUDY    48  37  66 CALM      30.30F

$$

VAZ055>057-190300-
NORTH AND CENTRAL PIEDMONT

CITY           SKY/WX    TMP DP  RH WIND       PRES   REMARKS
FREDERICKSBRG* CLOUDY    48  39  71 CALM      30.30S
STAFFORD*      CLOUDY    47  40  76 CALM      30.34F

$$

NCZ024-NYZ072-PAZ021-071-VAZ022-071-190300-
OTHER REGIONAL OBSERVATIONS

CITY           SKY/WX    TMP DP  RH WIND       PRES   REMARKS
NEW YORK CITY  CLOUDY    43  32  65 VRB5      30.32F
PHILADELPHIA   CLOUDY    48  37  65 S14       30.32R
PITTSBURGH     MOCLDY    59  36  42 N5        30.22R
ROANOKE        CLOUDY    49  38  65 E5        30.30R
RICHMOND       CLOUDY    49  38  65 E7        30.29F
RALEIGH        LGT RAIN  52  45  77 CALM      30.28R

$$

ANZ530>537-190300-
MARINE OBSERVATIONS

STATION/POSITION TIME  TEMP    WIND        PRES
                       AIR SEA DIR/SP/G
                 (UTC) (F)     (DEG/KT/KT) (MB)
THOMAS PT LIGHT  0200   49 52   CALM  /  2 1027.0S
BALT KEY BRIDGE  0200   50     190/  2/  3 1026.5F
COVE POINT       0200   48      CALM  /  1 1026.0F
LEWISETTA        0200   48 53  150/  6/  7 1025.9R
SOLOMONS ISLAND  0200      52                N/A
PINEY POINT      0200          140/  6/  6   N/A

$$




USA.gov is the U.S. government's official web portal to all federal, state and local government web resources and services.